| time (UTC) | temp F | wind direction | speed knots | gust knots | rain 1hr in | rain 24hr in | rain mn in | humidity % | barometer mb |
| 20260831201804 | 61 | 139 | 1.7 | 3.5 | 0.00 | 0.02 | 0.02 | 96 | 1002.5 |
| 20260831200904 | 61 | 120 | 0.9 | 2.6 | 0.00 | 0.02 | 0.02 | 95 | 1002.4 |
| 20260831200004 | 61 | 123 | 1.7 | 2.6 | 0.00 | 0.02 | 0.02 | 95 | 1002.4 |
| 20260831195404 | 61 | 118 | 0.9 | 2.6 | 0.00 | 0.02 | 0.02 | 95 | 1002.4 |
| 20260831194504 | 61 | 121 | 0.9 | 2.6 | 0.00 | 0.02 | 0.02 | 95 | 1002.4 |
| 20260831193604 | 61 | 121 | 0.9 | 2.6 | 0.00 | 0.02 | 0.02 | 95 | 1002.5 |
| 20260831192704 | 61 | 103 | 0.9 | 2.6 | 0.00 | 0.03 | 0.02 | 95 | 1002.4 |
| 20260831191825 | 61 | 105 | 0.9 | 2.6 | 0.00 | 0.07 | 0.02 | 95 | 1002.5 |
| 20260831190904 | 61 | 105 | 0.9 | 2.6 | 0.00 | 0.08 | 0.02 | 95 | 1002.5 |
| 20260831190025 | 61 | 105 | 0.9 | 2.6 | 0.00 | 0.12 | 0.02 | 95 | 1002.4 |
| 20260831185404 | 61 | 105 | 0.9 | 2.6 | 0.00 | 0.13 | 0.02 | 95 | 1002.4 |
| 20260831184504 | 61 | 107 | 1.7 | 3.5 | 0.00 | 0.16 | 0.02 | 95 | 1002.4 |
| 20260831183604 | 60 | 124 | 0.9 | 3.5 | 0.00 | 0.17 | 0.02 | 95 | 1002.4 |
| 20260831182704 | 61 | 113 | 0.9 | 2.6 | 0.00 | 0.18 | 0.02 | 95 | 1002.3 |
| 20260831181804 | 61 | 128 | 0.9 | 2.6 | 0.00 | 0.18 | 0.02 | 94 | 1002.3 |
| 20260831180904 | 61 | 129 | 0.9 | 2.6 | 0.00 | 0.18 | 0.02 | 94 | 1002.4 |
| 20260831180004 | 61 | 119 | 1.7 | 2.6 | 0.00 | 0.18 | 0.02 | 94 | 1002.4 |
| 20260831175404 | 61 | 106 | 1.7 | 3.5 | 0.00 | 0.18 | 0.02 | 94 | 1002.4 |
| 20260831174504 | 61 | 120 | 1.7 | 5.2 | 0.00 | 0.18 | 0.02 | 94 | 1002.3 |
| 20260831173604 | 61 | 123 | 1.7 | 5.2 | 0.00 | 0.18 | 0.02 | 94 | 1002.4 |
| 20260831172704 | 61 | 124 | 2.6 | 6.1 | 0.00 | 0.18 | 0.02 | 94 | 1002.5 |
| 20260831171804 | 62 | 126 | 2.6 | 5.2 | 0.00 | 0.18 | 0.02 | 94 | 1002.5 |
| 20260831170904 | 62 | 124 | 2.6 | 5.2 | 0.00 | 0.18 | 0.02 | 93 | 1002.4 |
| 20260831170004 | 62 | 119 | 1.7 | 5.2 | 0.00 | 0.18 | 0.02 | 93 | 1002.5 |
| 20260831165404 | 62 | 127 | 1.7 | 4.3 | 0.00 | 0.18 | 0.02 | 93 | 1002.5 |
| 20260831164504 | 62 | 124 | 2.6 | 5.2 | 0.00 | 0.18 | 0.02 | 93 | 1002.4 |
| 20260831163625 | 62 | 129 | 1.7 | 5.2 | 0.00 | 0.18 | 0.02 | 93 | 1002.4 |
| 20260831162704 | 62 | 143 | 1.7 | 3.5 | 0.00 | 0.18 | 0.02 | 92 | 1002.4 |
| 20260831161804 | 62 | 120 | 2.6 | 6.1 | 0.00 | 0.18 | 0.02 | 92 | 1002.4 |
| 20260831160904 | 62 | 111 | 2.6 | 7.0 | 0.00 | 0.18 | 0.02 | 93 | 1002.5 |
| 20260831160004 | 62 | 118 | 2.6 | 5.2 | 0.00 | 0.18 | 0.02 | 93 | 1002.5 |
| 20260831155404 | 62 | 122 | 1.7 | 4.3 | 0.00 | 0.18 | 0.02 | 92 | 1002.6 |
| 20260831154504 | 62 | 120 | 2.6 | 5.2 | 0.00 | 0.18 | 0.02 | 92 | 1002.6 |
| 20260831153604 | 62 | 124 | 1.7 | 5.2 | 0.00 | 0.18 | 0.02 | 92 | 1002.6 |
| 20260831152725 | 62 | 128 | 1.7 | 5.2 | 0.00 | 0.18 | 0.02 | 92 | 1002.6 |
| 20260831151804 | 62 | 144 | 3.5 | 6.1 | 0.00 | 0.18 | 0.02 | 92 | 1002.6 |
| 20260831150904 | 62 | 139 | 3.5 | 7.0 | 0.00 | 0.18 | 0.02 | 91 | 1002.7 |
| 20260831150025 | 63 | 133 | 3.5 | 7.0 | 0.00 | 0.18 | 0.02 | 91 | 1002.7 |
| 20260831145425 | 63 | 130 | 3.5 | 9.6 | 0.00 | 0.18 | 0.02 | 91 | 1002.7 |
| 20260831144525 | 63 | 143 | 2.6 | 7.8 | 0.00 | 0.18 | 0.02 | 91 | 1002.7 |
| 20260831143604 | 63 | 142 | 1.7 | 4.3 | 0.00 | 0.18 | 0.02 | 92 | 1002.8 |
| 20260831142704 | 63 | 150 | 2.6 | 7.0 | 0.00 | 0.18 | 0.02 | 92 | 1002.8 |
| 20260831141804 | 63 | 135 | 2.6 | 5.2 | 0.00 | 0.18 | 0.02 | 92 | 1002.8 |
| 20260831140904 | 63 | 117 | 2.6 | 6.1 | 0.00 | 0.18 | 0.02 | 92 | 1002.8 |
| 20260831140004 | 62 | 138 | 1.7 | 4.3 | 0.00 | 0.18 | 0.02 | 93 | 1002.8 |
| 20260831135404 | 62 | 153 | 2.6 | 4.3 | 0.00 | 0.18 | 0.02 | 93 | 1002.9 |
| 20260831134504 | 62 | 159 | 1.7 | 3.5 | 0.00 | 0.18 | 0.02 | 93 | 1002.9 |
| 20260831133604 | 62 | 158 | 2.6 | 6.1 | 0.00 | 0.18 | 0.02 | 93 | 1002.9 |
| 20260831132725 | 62 | 144 | 4.3 | 7.8 | 0.00 | 0.18 | 0.02 | 93 | 1002.9 |
| 20260831131804 | 62 | 150 | 3.5 | 7.8 | 0.00 | 0.18 | 0.02 | 93 | 1003.0 |
| 20260831130904 | 62 | 142 | 2.6 | 6.1 | 0.00 | 0.18 | 0.02 | 94 | 1003.0 |
| 20260831130004 | 62 | 134 | 2.6 | 6.1 | 0.00 | 0.18 | 0.02 | 94 | 1003.1 |
| 20260831125404 | 62 | 132 | 2.6 | 6.1 | 0.00 | 0.18 | 0.02 | 95 | 1003.1 |
| 20260831124504 | 61 | 127 | 1.7 | 5.2 | 0.00 | 0.18 | 0.02 | 95 | 1003.2 |
| 20260831123604 | 61 | 131 | 2.6 | 6.1 | 0.00 | 0.18 | 0.02 | 95 | 1003.2 |
| 20260831122704 | 61 | 135 | 2.6 | 5.2 | 0.00 | 0.18 | 0.02 | 95 | 1003.2 |
| 20260831121804 | 61 | 142 | 2.6 | 5.2 | 0.00 | 0.18 | 0.02 | 95 | 1003.3 |
| 20260831120904 | 61 | 130 | 2.6 | 5.2 | 0.00 | 0.18 | 0.02 | 95 | 1003.2 |
| 20260831120004 | 60 | 123 | 2.6 | 6.1 | 0.00 | 0.18 | 0.02 | 94 | 1003.2 |
| 20260831115425 | 61 | 125 | 2.6 | 6.1 | 0.00 | 0.18 | 0.02 | 94 | 1003.3 |
| 20260831114504 | 61 | 127 | 1.7 | 3.5 | 0.00 | 0.18 | 0.02 | 95 | 1003.3 |
| 20260831113604 | 60 | 126 | 2.6 | 4.3 | 0.00 | 0.18 | 0.02 | 94 | 1003.4 |
| 20260831112725 | 60 | 132 | 2.6 | 7.0 | 0.00 | 0.18 | 0.02 | 94 | 1003.4 |
| 20260831111825 | 60 | 130 | 3.5 | 7.0 | 0.01 | 0.18 | 0.02 | 94 | 1003.4 |
| 20260831110904 | 60 | 132 | 3.5 | 7.0 | 0.01 | 0.18 | 0.02 | 94 | 1003.4 |
| 20260831110004 | 60 | 131 | 4.3 | 7.8 | 0.01 | 0.18 | 0.02 | 94 | 1003.4 |
| 20260831105404 | 60 | 129 | 3.5 | 7.0 | 0.01 | 0.18 | 0.02 | 94 | 1003.5 |
| 20260831104504 | 60 | 108 | 1.7 | 2.6 | 0.01 | 0.18 | 0.02 | 94 | 1003.5 |
| 20260831103604 | 60 | 101 | 0.9 | 5.2 | 0.01 | 0.18 | 0.02 | 93 | 1003.5 |
| 20260831102704 | 60 | 112 | 1.7 | 5.2 | 0.01 | 0.18 | 0.02 | 93 | 1003.5 |
| 20260831101804 | 60 | 133 | 2.6 | 7.0 | 0.00 | 0.17 | 0.01 | 92 | 1003.6 |
| 20260831100904 | 60 | 151 | 6.1 | 10.4 | 0.00 | 0.17 | 0.01 | 92 | 1003.6 |
| 20260831100004 | 60 | 138 | 5.2 | 11.3 | 0.00 | 0.17 | 0.01 | 92 | 1003.6 |
| 20260831095404 | 61 | 143 | 3.5 | 9.6 | 0.00 | 0.17 | 0.01 | 92 | 1003.6 |
| 20260831094504 | 61 | 142 | 4.3 | 8.7 | 0.00 | 0.17 | 0.01 | 91 | 1003.5 |
| 20260831093604 | 61 | 145 | 5.2 | 12.2 | 0.00 | 0.17 | 0.01 | 91 | 1003.5 |
| 20260831092704 | 61 | 147 | 6.1 | 12.2 | 0.00 | 0.17 | 0.01 | 91 | 1003.5 |
| 20260831091804 | 61 | 153 | 4.3 | 8.7 | 0.00 | 0.17 | 0.01 | 92 | 1003.4 |
| 20260831090904 | 61 | 147 | 3.5 | 7.8 | 0.00 | 0.17 | 0.01 | 93 | 1003.5 |
| 20260831090004 | 60 | 137 | 2.6 | 7.0 | 0.00 | 0.18 | 0.01 | 93 | 1003.5 |
| 20260831085404 | 60 | 143 | 4.3 | 8.7 | 0.00 | 0.18 | 0.01 | 92 | 1003.4 |
| 20260831084504 | 60 | 141 | 5.2 | 10.4 | 0.00 | 0.18 | 0.01 | 92 | 1003.5 |
| 20260831083604 | 60 | 145 | 5.2 | 11.3 | 0.00 | 0.18 | 0.01 | 93 | 1003.6 |
| 20260831082704 | 60 | 147 | 4.3 | 8.7 | 0.00 | 0.18 | 0.01 | 94 | 1003.6 |
| 20260831081804 | 60 | 145 | 3.5 | 7.8 | 0.00 | 0.18 | 0.01 | 94 | 1003.6 |
| 20260831080904 | 60 | 147 | 4.3 | 7.8 | 0.00 | 0.18 | 0.01 | 94 | 1003.6 |
| 20260831080004 | 60 | 148 | 3.5 | 6.1 | 0.00 | 0.18 | 0.01 | 95 | 1003.6 |
| 20260831075404 | 60 | 153 | 3.5 | 7.0 | 0.00 | 0.18 | 0.01 | 95 | 1003.6 |
| 20260831074504 | 60 | 148 | 3.5 | 6.1 | 0.00 | 0.18 | 0.01 | 95 | 1003.7 |
| 20260831073604 | 59 | 150 | 2.6 | 6.1 | 0.00 | 0.18 | 0.01 | 96 | 1003.7 |
| 20260831072704 | 59 | 149 | 3.5 | 6.1 | 0.00 | 0.18 | 0.01 | 96 | 1003.8 |
| 20260831071825 | 59 | 152 | 4.3 | 7.0 | 0.00 | 0.18 | 0.01 | 96 | 1003.8 |
| 20260831070904 | 58 | 155 | 4.3 | 7.8 | 0.00 | 0.19 | 0.01 | 96 | 1003.8 |
| 20260831070004 | 58 | 149 | 3.5 | 7.0 | 0.00 | 0.19 | 0.01 | 96 | 1003.8 |
| 20260831065404 | 58 | 151 | 2.6 | 6.1 | 0.00 | 0.19 | 0.01 | 96 | 1003.8 |
| 20260831064504 | 58 | 160 | 4.3 | 8.7 | 0.00 | 0.20 | 0.01 | 96 | 1003.8 |
| 20260831063604 | 58 | 166 | 4.3 | 10.4 | 0.00 | 0.20 | 0.01 | 96 | 1003.9 |
| 20260831062704 | 58 | 154 | 3.5 | 7.0 | 0.00 | 0.20 | 0.01 | 97 | 1003.8 |
| 20260831061825 | 58 | 154 | 3.5 | 8.7 | 0.00 | 0.21 | 0.01 | 97 | 1003.8 |
| 20260831060904 | 58 | 155 | 5.2 | 9.6 | 0.00 | 0.23 | 0.01 | 96 | 1003.8 |
| 20260831060004 | 58 | 152 | 3.5 | 7.0 | 0.00 | 0.24 | 0.01 | 97 | 1003.9 |
| 20260831055404 | 58 | 140 | 2.6 | 6.1 | 0.00 | 0.25 | 0.01 | 97 | 1003.9 |
| 20260831054504 | 58 | 153 | 3.5 | 6.1 | 0.00 | 0.25 | 0.01 | 97 | 1003.9 |
| 20260831053604 | 58 | 163 | 3.5 | 7.0 | 0.00 | 0.26 | 0.01 | 97 | 1003.9 |
| 20260831052725 | 58 | 146 | 2.6 | 6.1 | 0.00 | 0.27 | 0.01 | 97 | 1003.9 |
| 20260831051804 | 58 | 139 | 1.7 | 5.2 | 0.00 | 0.27 | 0.01 | 97 | 1003.9 |
| 20260831050904 | 58 | 138 | 2.6 | 3.5 | 0.00 | 0.27 | 0.01 | 97 | 1003.9 |
| 20260831050004 | 57 | 148 | 3.5 | 5.2 | 0.00 | 0.27 | 0.01 | 96 | 1003.9 |
| 20260831045404 | 57 | 149 | 2.6 | 5.2 | 0.00 | 0.27 | 0.01 | 97 | 1003.9 |
| 20260831044504 | 57 | 147 | 2.6 | 5.2 | 0.00 | 0.27 | 0.01 | 97 | 1003.9 |
| 20260831043604 | 57 | 143 | 2.6 | 4.3 | 0.00 | 0.27 | 0.01 | 97 | 1003.9 |
| 20260831042704 | 57 | 144 | 1.7 | 3.5 | 0.00 | 0.27 | 0.01 | 97 | 1003.9 |
| 20260831041804 | 57 | 146 | 2.6 | 5.2 | 0.00 | 0.27 | 0.01 | 97 | 1004.0 |
| 20260831040004 | 57 | 141 | 3.5 | 6.1 | 0.00 | 0.27 | 0.01 | 96 | 1004.0 |
| 20260831035404 | 57 | 145 | 2.6 | 6.1 | 0.00 | 0.27 | 0.01 | 97 | 1004.0 |
| 20260831034504 | 57 | 142 | 2.6 | 6.1 | 0.00 | 0.27 | 0.01 | 96 | 1003.9 |
| 20260831033604 | 57 | 143 | 2.6 | 5.2 | 0.00 | 0.27 | 0.01 | 96 | 1003.9 |
| 20260831032704 | 57 | 155 | 2.6 | 6.1 | 0.00 | 0.27 | 0.01 | 96 | 1003.8 |
| 20260831031804 | 57 | 151 | 3.5 | 7.8 | 0.00 | 0.27 | 0.01 | 96 | 1003.8 |
| 20260831030904 | 57 | 154 | 2.6 | 5.2 | 0.00 | 0.27 | 0.01 | 96 | 1003.9 |
| 20260831030004 | 57 | 151 | 2.6 | 5.2 | 0.00 | 0.27 | 0.01 | 96 | 1003.9 |
| 20260831025404 | 57 | 147 | 2.6 | 5.2 | 0.00 | 0.27 | 0.01 | 96 | 1003.9 |
| 20260831024504 | 57 | 161 | 1.7 | 4.3 | 0.00 | 0.27 | 0.01 | 96 | 1004.0 |
| 20260831023604 | 57 | 170 | 1.7 | 5.2 | 0.00 | 0.27 | 0.01 | 96 | 1003.9 |
| 20260831022704 | 57 | 148 | 3.5 | 7.0 | 0.00 | 0.27 | 0.01 | 96 | 1003.9 |
| 20260831021804 | 57 | 161 | 2.6 | 7.0 | 0.00 | 0.27 | 0.01 | 96 | 1003.9 |
| 20260831020904 | 57 | 157 | 2.6 | 7.0 | 0.00 | 0.27 | 0.01 | 96 | 1003.9 |
| 20260831020004 | 57 | 155 | 3.5 | 6.1 | 0.00 | 0.27 | 0.01 | 96 | 1003.8 |
| 20260831015404 | 57 | 159 | 3.5 | 7.0 | 0.00 | 0.27 | 0.01 | 96 | 1003.9 |
| 20260831014504 | 57 | 159 | 3.5 | 7.0 | 0.00 | 0.27 | 0.01 | 96 | 1004.0 |
| 20260831013603 | 57 | 159 | 3.5 | 6.1 | 0.01 | 0.27 | 0.01 | 96 | 1003.9 |
| 20260831012725 | 57 | 156 | 2.6 | 7.0 | 0.01 | 0.27 | 0.01 | 96 | 1003.9 |
| 20260831011804 | 57 | 167 | 4.3 | 7.8 | 0.01 | 0.27 | 0.01 | 96 | 1004.0 |
| 20260831010904 | 57 | 169 | 2.6 | 7.0 | 0.01 | 0.27 | 0.01 | 96 | 1003.9 |
| 20260831010004 | 57 | 137 | 1.7 | 3.5 | 0.01 | 0.27 | 0.01 | 96 | 1003.9 |
| 20260831005404 | 57 | 137 | 0.9 | 2.6 | 0.01 | 0.27 | 0.01 | 96 | 1003.9 |
| 20260831004525 | 57 | 137 | 0.9 | 2.6 | 0.01 | 0.27 | 0.01 | 96 | 1003.9 |
| 20260831003604 | 57 | 137 | 0.9 | 1.7 | 0.00 | 0.26 | 0.00 | 96 | 1003.9 |
| 20260831002704 | 58 | 137 | 1.7 | 2.6 | 0.00 | 0.26 | 0.00 | 96 | 1003.9 |
| 20260831001804 | 58 | 137 | 1.7 | 3.5 | 0.00 | 0.26 | 0.00 | 96 | 1003.9 |
| 20260831000904 | 58 | 137 | 1.7 | 2.6 | 0.00 | 0.26 | 0.00 | 96 | 1004.0 |
| 20260831000004 | 58 | 137 | 1.7 | 3.5 | 0.00 | 0.26 | 0.00 | 96 | 1003.9 |
| 20260830235404 | 58 | 137 | 0.9 | 2.6 | 0.00 | 0.26 | 0.00 | 96 | 1003.9 |
| 20260830234525 | 58 | 137 | 0.9 | 2.6 | 0.00 | 0.26 | 0.00 | 96 | 1003.9 |
| 20260830233604 | 58 | 137 | 0.9 | 3.5 | 0.00 | 0.26 | 0.00 | 96 | 1003.9 |
| 20260830232704 | 58 | 137 | 1.7 | 3.5 | 0.00 | 0.26 | 0.00 | 96 | 1003.9 |
| 20260830231804 | 58 | 137 | 1.7 | 3.5 | 0.00 | 0.26 | 0.00 | 96 | 1004.0 |
| 20260830230904 | 58 | 137 | 1.7 | 3.5 | 0.00 | 0.26 | 0.00 | 96 | 1004.0 |
| 20260830230004 | 58 | 137 | 1.7 | 2.6 | 0.00 | 0.26 | 0.00 | 96 | 1004.0 |
| 20260830225404 | 58 | 137 | 1.7 | 2.6 | 0.00 | 0.26 | 0.00 | 96 | 1004.0 |
| 20260830224503 | 58 | 137 | 1.7 | 3.5 | 0.00 | 0.26 | 0.00 | 96 | 1003.9 |
| 20260830223625 | 58 | 137 | 1.7 | 3.5 | 0.00 | 0.26 | 0.00 | 96 | 1003.9 |
| 20260830222704 | 58 | 137 | 1.7 | 3.5 | 0.00 | 0.26 | 0.00 | 96 | 1003.9 |
| 20260830221804 | 58 | 136 | 1.7 | 3.5 | 0.00 | 0.26 | 0.00 | 96 | 1003.9 |
| 20260830220904 | 58 | 136 | 1.7 | 3.5 | 0.00 | 0.26 | 0.00 | 95 | 1003.9 |
| 20260830220004 | 58 | 151 | 1.7 | 4.3 | 0.00 | 0.26 | 0.00 | 96 | 1003.9 |
| 20260830215404 | 58 | 166 | 2.6 | 4.3 | 0.00 | 0.26 | 0.00 | 95 | 1003.8 |
| 20260830214504 | 59 | 164 | 2.6 | 4.3 | 0.00 | 0.26 | 0.00 | 95 | 1003.9 |
| 20260830213625 | 59 | 165 | 2.6 | 6.1 | 0.00 | 0.26 | 0.00 | 95 | 1003.9 |
| 20260830212703 | 59 | 171 | 2.6 | 6.1 | 0.00 | 0.26 | 0.00 | 96 | 1004.0 |
| 20260830211803 | 59 | 173 | 3.5 | 6.1 | 0.00 | 0.26 | 0.00 | 96 | 1004.0 |
| 20260830210904 | 59 | 166 | 4.3 | 7.0 | 0.00 | 0.26 | 0.00 | 96 | 1003.9 |
| 20260830210026 | 59 | 169 | 3.5 | 7.0 | 0.00 | 0.26 | 0.00 | 95 | 1003.8 |
| 20260830205403 | 59 | 169 | 3.5 | 6.1 | 0.00 | 0.26 | 0.26 | 95 | 1003.8 |
| 20260830204525 | 59 | 157 | 4.3 | 7.8 | 0.00 | 0.26 | 0.26 | 95 | 1003.8 |
| 20260830203603 | 59 | 160 | 3.5 | 7.8 | 0.00 | 0.26 | 0.26 | 95 | 1003.7 |
| 20260830202725 | 59 | 156 | 4.3 | 7.8 | 0.01 | 0.26 | 0.26 | 95 | 1003.7 |